Brownsville, TX

10:32 PM CDT on September 30, 2016 (GMT -0500)
Brownsville-South Padre I International

Weather History for KBRO - March, 2013

Change the Weather History Date:

Saturday, March 9, 2013

  Actual Average Record
Temperature  
Mean Temperature 76 °F 68 °F  
Max Temperature 81 °F 78 °F 90 °F (1901)
Min Temperature 70 °F 58 °F 36 °F (1932)
Degree Days  
Heating Degree Days 0 2  
Month to date heating degree days 17 18  
Since 1 July heating degree days 310 521  
Cooling Degree Days 11 5  
Month to date cooling degree days 30 40  
Year to date cooling degree days 251 181  
Growing Degree Days 26 (Base 50)    
Moisture  
Dew Point 67 °F    
Average Humidity 78    
Maximum Humidity 93    
Minimum Humidity 62    
Precipitation  
Precipitation T in 0.03 in 2.03 in (2015)
Month to date precipitation 0.26 0.32  
Year to date precipitation 1.74 2.67  
Sea Level Pressure  
Sea Level Pressure 29.83 in    
Wind  
Wind Speed 23 mph (SSE)    
Max Wind Speed 33 mph    
Max Gust Speed 43 mph    
Visibility 10 miles    
Events      
T = Trace of Precipitation, MM = Missing Value Source: NWS Daily Summary

Daily Weather History Graph

Daily Weather History Graph

Search for Another Location

Airport or City:

Trip Planner

Search our weather history database for the weather conditions in past years. The results will help you decide how hot, cold, wet, or windy it might be!

Date:

Astronomy

Mar. 09, 2013 Rise Set
Actual Time 6:44 AM CST 6:35 PM CST
Civil Twilight 6:21 AM CST 6:58 PM CST
Nautical Twilight 5:55 AM CST 7:25 PM CST
Astronomical Twilight 5:28 AM CST 7:52 PM CST
Moon 4:59 AM CST (3/9) 4:46 PM CST (3/9)
Length of Visible Light 12h 36m
Length of Day
11h 50m
Waning Crescent, 5% of the Moon is Illuminated
Mar 9
Waning Crescent
Mar 11
New
Mar 19
First Quarter
Mar 27
Full
Apr 2
Last Quarter

Hourly Weather History & Observations

Time (CST) Temp. Heat Index Dew Point Humidity Pressure Visibility Wind Dir Wind Speed Gust Speed Precip Events Conditions
12:53 AM 70.0 °F - 66.0 °F 87% 30.02 in 10.0 mi SSE 15.0 mph - N/A   Clear
1:53 AM 71.1 °F - 66.0 °F 84% 29.97 in 10.0 mi SE 17.3 mph 23.0 mph N/A   Clear
2:53 AM 71.1 °F - 66.0 °F 84% 29.94 in 10.0 mi SSE 19.6 mph 25.3 mph N/A   Clear
3:53 AM 71.1 °F - 66.0 °F 84% 29.91 in 10.0 mi SSE 19.6 mph 25.3 mph N/A   Partly Cloudy
4:53 AM 71.1 °F - 66.9 °F 87% 29.91 in 10.0 mi SSE 20.7 mph 27.6 mph N/A   Partly Cloudy
5:53 AM 71.1 °F - 66.9 °F 87% 29.89 in 10.0 mi SSE 24.2 mph 28.8 mph N/A   Clear
6:53 AM 71.1 °F - 66.9 °F 87% 29.90 in 10.0 mi SSE 18.4 mph 26.5 mph N/A   Clear
7:53 AM 71.1 °F - 66.9 °F 87% 29.92 in 10.0 mi SSE 16.1 mph - N/A   Partly Cloudy
8:53 AM 73.0 °F - 66.9 °F 81% 29.92 in 10.0 mi SSE 21.9 mph 29.9 mph 0.00 in   Partly Cloudy
9:38 AM 75.2 °F - 68.0 °F 78% 29.92 in 10.0 mi SSE 24.2 mph 35.7 mph N/A   Mostly Cloudy
9:53 AM 75.9 °F - 66.9 °F 74% 29.92 in 10.0 mi SSE 27.6 mph 36.8 mph N/A   Overcast
10:53 AM 78.1 °F - 66.9 °F 68% 29.91 in 10.0 mi SSE 29.9 mph 39.1 mph N/A   Mostly Cloudy
11:16 AM 78.8 °F - 66.2 °F 65% 29.91 in 10.0 mi SSE 28.8 mph 36.8 mph N/A   Mostly Cloudy
11:43 AM 80.6 °F 82.7 °F 66.2 °F 61% 29.89 in 10.0 mi SSE 27.6 mph 39.1 mph N/A   Mostly Cloudy
11:53 AM 79.0 °F - 66.0 °F 64% 29.89 in 10.0 mi SSE 29.9 mph 38.0 mph N/A   Mostly Cloudy
12:30 PM 80.6 °F 82.7 °F 66.2 °F 61% 29.87 in 10.0 mi SSE 25.3 mph 36.8 mph N/A   Mostly Cloudy
12:40 PM 80.6 °F 82.7 °F 66.2 °F 61% 29.86 in 10.0 mi South 32.2 mph 39.1 mph N/A   Mostly Cloudy
12:53 PM 80.1 °F 82.3 °F 66.9 °F 64% 29.85 in 10.0 mi SSE 31.1 mph 40.3 mph N/A   Mostly Cloudy
1:53 PM 80.1 °F 82.1 °F 66.0 °F 62% 29.82 in 10.0 mi SSE 29.9 mph 36.8 mph N/A   Mostly Cloudy
2:53 PM 79.0 °F - 66.0 °F 64% 29.79 in 10.0 mi SSE 27.6 mph 36.8 mph N/A   Overcast
3:53 PM 78.1 °F - 64.9 °F 64% 29.76 in 10.0 mi SSE 27.6 mph 42.6 mph N/A   Mostly Cloudy
4:53 PM 75.9 °F - 66.0 °F 71% 29.75 in 10.0 mi SSE 25.3 mph 34.5 mph N/A   Mostly Cloudy
5:40 PM 75.2 °F - 66.2 °F 73% 29.74 in 10.0 mi SE 27.6 mph 33.4 mph N/A   Scattered Clouds
5:53 PM 73.9 °F - 66.0 °F 76% 29.73 in 10.0 mi SE 26.5 mph 35.7 mph N/A   Scattered Clouds
6:53 PM 72.0 °F - 66.0 °F 81% 29.73 in 10.0 mi SSE 23.0 mph 31.1 mph N/A   Clear
7:53 PM 71.1 °F - 66.9 °F 87% 29.73 in 10.0 mi SSE 19.6 mph 27.6 mph N/A   Partly Cloudy
8:44 PM 71.6 °F - 66.2 °F 83% 29.76 in 10.0 mi SSE 21.9 mph 27.6 mph N/A   Mostly Cloudy
8:53 PM 71.1 °F - 66.9 °F 87% 29.76 in 10.0 mi SSE 19.6 mph 28.8 mph N/A   Mostly Cloudy
9:53 PM 72.0 °F - 68.0 °F 87% 29.74 in 10.0 mi SSE 19.6 mph 27.6 mph N/A   Overcast
10:28 PM 71.6 °F - 69.8 °F 94% 29.74 in 9.0 mi SSE 20.7 mph 28.8 mph N/A   Overcast
10:53 PM 72.0 °F - 69.1 °F 91% 29.75 in 9.0 mi SSE 18.4 mph 27.6 mph N/A   Overcast
11:18 PM 71.6 °F - 69.8 °F 94% 29.74 in 9.0 mi SSE 19.6 mph 32.2 mph N/A   Overcast
11:53 PM 72.0 °F - 69.1 °F 91% 29.72 in 9.0 mi SSE 24.2 mph 31.1 mph N/A   Overcast